Omaha, NE

8:47 PM CST on December 10, 2016 (GMT -0600)
Eppley Airfield

Weather History for KOMA - January, 2013

Change the Weather History Date:

Friday, January 11, 2013

  Actual Average Record
Temperature  
Mean Temperature 41 °F 23 °F  
Max Temperature 53 °F 33 °F 61 °F (1986)
Min Temperature 29 °F 13 °F -22 °F (1918)
Degree Days  
Heating Degree Days 24 42  
Month to date heating degree days 416 462  
Since 1 July heating degree days 2693 2941  
Cooling Degree Days 0 0  
Month to date cooling degree days 0 0  
Year to date cooling degree days 0 0  
Moisture  
Dew Point 38 °F    
Average Humidity 80    
Maximum Humidity 93    
Minimum Humidity 66    
Precipitation  
Precipitation T in 0.02 in 0.50 in (1909)
Month to date precipitation 0.04 0.24  
Year to date precipitation 0.04 0.24  
Snow  
Snow 0.00 in 0.20 in - ()
Month to date snowfall T 2.1  
Since 1 July snowfall 7.4 11.1  
Snow Depth 0.00 in    
Sea Level Pressure  
Sea Level Pressure 29.56 in    
Wind  
Wind Speed 12 mph (South)    
Max Wind Speed 25 mph    
Max Gust Speed 32 mph    
Visibility 5 miles    
Events Fog    
T = Trace of Precipitation, MM = Missing Value Source: NWS Daily Summary

Daily Weather History Graph

Daily Weather History Graph

Search for Another Location

Airport or City:

Trip Planner

Search our weather history database for the weather conditions in past years. The results will help you decide how hot, cold, wet, or windy it might be!

Date:

Astronomy

Jan. 11, 2013 Rise Set
Actual Time 7:48 AM CST 5:15 PM CST
Civil Twilight 7:17 AM CST 5:45 PM CST
Nautical Twilight 6:43 AM CST 6:20 PM CST
Astronomical Twilight 6:10 AM CST 6:53 PM CST
Moon 7:21 AM CST 5:34 PM CST
Length of Visible Light 10h 28m
Length of Day
9h 26m
Waning Crescent, 0% of the Moon is Illuminated
Jan 11
Waning Crescent
Jan 11
New
Jan 18
First Quarter
Jan 26
Full
Feb 3
Last Quarter

Hourly Weather History & Observations

Time (CST) Temp. Windchill Dew Point Humidity Pressure Visibility Wind Dir Wind Speed Gust Speed Precip Events Conditions
12:09 AM 37.4 °F 30.8 °F 35.6 °F 93% 29.70 in 2.0 mi SSE 9.2 mph - N/A   Overcast
12:52 AM 37.0 °F 31.0 °F 36.0 °F 96% 29.70 in 2.0 mi South 8.1 mph - N/A   Overcast
1:29 AM 37.4 °F 32.8 °F 35.6 °F 93% 29.65 in 1.5 mi SSE 5.8 mph - N/A   Overcast
1:43 AM 37.4 °F 32.1 °F 35.6 °F 93% 29.65 in 0.5 mi SSE 6.9 mph - N/A Fog Fog
1:52 AM 37.0 °F 30.4 °F 36.0 °F 96% 29.68 in 0.2 mi South 9.2 mph - N/A Fog Fog
2:28 AM 37.4 °F 30.3 °F 35.6 °F 93% 29.64 in 0.2 mi SSE 10.4 mph - N/A Fog Fog
2:52 AM 37.0 °F 30.4 °F 36.0 °F 96% 29.67 in 0.2 mi South 9.2 mph - N/A Fog Fog
3:22 AM 37.4 °F 31.4 °F 35.6 °F 93% 29.63 in 0.2 mi South 8.1 mph - N/A Fog Fog
3:52 AM 37.0 °F 30.4 °F 36.0 °F 96% 29.64 in 0.2 mi South 9.2 mph - N/A Fog Fog
4:52 AM 37.0 °F 31.6 °F 36.0 °F 96% 29.62 in 0.2 mi South 6.9 mph - N/A Fog Fog
5:52 AM 37.0 °F 31.6 °F 36.0 °F 96% 29.61 in 0.2 mi SSE 6.9 mph - N/A Fog Fog
6:46 AM 37.4 °F 30.3 °F 37.4 °F 100% 29.58 in 1.0 mi South 10.4 mph - 0.00 in   Light Drizzle
6:47 AM 37.9 °F 30.5 °F 37.0 °F 97% 29.60 in 1.0 mi South 11.5 mph - 0.00 in   Light Drizzle
7:37 AM 39.2 °F 32.5 °F 37.4 °F 93% 29.56 in 0.5 mi South 10.4 mph - 0.00 in   Light Drizzle
7:52 AM 39.0 °F 32.8 °F 37.0 °F 93% 29.57 in 0.5 mi SSE 9.2 mph - 0.00 in   Light Drizzle
8:13 AM 39.2 °F 32.0 °F 37.4 °F 93% 29.55 in 1.2 mi SSE 11.5 mph - 0.00 in   Light Drizzle
8:52 AM 39.0 °F 31.8 °F 37.9 °F 96% 29.55 in 1.0 mi SE 11.5 mph - 0.00 in   Light Drizzle
9:27 AM 42.8 °F 37.5 °F 41.0 °F 93% 29.53 in 2.5 mi South 9.2 mph - 0.00 in   Light Drizzle
9:41 AM 42.8 °F 36.2 °F 42.8 °F 100% 29.52 in 2.5 mi South 12.7 mph - 0.00 in   Overcast
9:52 AM 44.1 °F 37.1 °F 42.1 °F 93% 29.54 in 2.5 mi South 15.0 mph - 0.00 in   Overcast
10:05 AM 44.6 °F 37.4 °F 42.8 °F 93% 29.51 in 4.0 mi SSE 16.1 mph - N/A   Overcast
10:13 AM 44.6 °F 37.8 °F 42.8 °F 93% 29.51 in 4.0 mi SSE 15.0 mph - N/A   Overcast
10:52 AM 45.0 °F 38.2 °F 43.0 °F 93% 29.49 in 6.0 mi SSE 15.0 mph - N/A   Overcast
11:14 AM 46.4 °F 39.8 °F 42.8 °F 87% 29.48 in 6.0 mi South 16.1 mph - N/A   Overcast
11:52 AM 46.9 °F - 44.1 °F 90% 29.47 in 7.0 mi South 13.8 mph - N/A   Overcast
12:52 PM 48.9 °F - 44.1 °F 83% 29.44 in 8.0 mi South 13.8 mph - N/A   Mostly Cloudy
1:07 PM 50.0 °F - 44.6 °F 82% 29.41 in 10.0 mi South 18.4 mph - N/A   Mostly Cloudy
1:52 PM 52.0 °F - 44.1 °F 74% 29.40 in 10.0 mi South 13.8 mph - N/A   Mostly Cloudy
2:52 PM 53.1 °F - 43.0 °F 69% 29.41 in 10.0 mi South 18.4 mph - N/A   Mostly Cloudy
3:52 PM 52.0 °F - 44.1 °F 74% 29.39 in 10.0 mi South 15.0 mph - N/A   Mostly Cloudy
4:52 PM 52.0 °F - 42.1 °F 69% 29.41 in 10.0 mi SSW 10.4 mph - N/A   Mostly Cloudy
5:52 PM 51.1 °F - 41.0 °F 68% 29.42 in 10.0 mi South 10.4 mph - N/A   Mostly Cloudy
6:52 PM 48.9 °F - 41.0 °F 74% 29.44 in 10.0 mi SSW 5.8 mph - N/A   Mostly Cloudy
7:52 PM 39.9 °F 35.8 °F 37.0 °F 89% 29.47 in 10.0 mi North 5.8 mph - N/A   Mostly Cloudy
8:52 PM 37.9 °F 31.5 °F 36.0 °F 93% 29.52 in 7.0 mi NNW 9.2 mph - N/A   Overcast
9:17 PM 35.6 °F 27.5 °F 33.8 °F 93% 29.52 in 10.0 mi North 11.5 mph - N/A   Overcast
9:52 PM 35.1 °F 25.2 °F 30.0 °F 82% 29.60 in 10.0 mi NW 16.1 mph 26.5 mph N/A   Overcast
10:02 PM 33.8 °F 24.3 °F 30.2 °F 87% 29.60 in 10.0 mi NW 13.8 mph 23.0 mph N/A   Overcast
10:52 PM 32.0 °F 20.8 °F 27.0 °F 82% 29.68 in 10.0 mi WNW 17.3 mph 32.2 mph N/A   Overcast
11:52 PM 30.0 °F 16.3 °F 21.9 °F 72% 29.75 in 10.0 mi WNW 24.2 mph 29.9 mph N/A   Overcast